Le nostre stazioni meteo in Italia

Pubblicità
Il mio iltempo24.it
Pian Rosa, Italia (16052): Temperatura & dewpoint: 07.12.2018 22:00:00 - 13.12.2018 22:00:00 (CET)Pian Rosa, Italia (16052): velocità del vento: 07.12.2018 22:00:00 - 13.12.2018 22:00:00 (CET)Pian Rosa, Italia (16052): direzione del vento: 07.12.2018 22:00:00 - 13.12.2018 22:00:00 (CET)Pian Rosa, Italia (16052): visibility: 07.12.2018 22:00:00 - 13.12.2018 22:00:00 (CET)Pian Rosa, Italia (16052): ore di luce: 07.12.2018 22:00:00 - 13.12.2018 22:00:00 (CET)
Data & Tempo tt [°C] td [°C] ff [km/h] ff [kn] dd vv [km] sd [min]
13.12.2018 22:00:00 -15,4 -15,9 18 10 S 10 -
13.12.2018 21:00:00 -15,2 -18,6 18 10 S 10 -
13.12.2018 20:00:00 -15,0 -21,0 5 3 S 10 -
13.12.2018 19:00:00 -15,0 -20,5 5 3 S 10 -
13.12.2018 18:00:00 -15,2 -18,6 5 3 S 10 12
13.12.2018 17:00:00 -14,4 -21,5 5 3 S 30 60
13.12.2018 16:00:00 -14,2 -24,1 5 3 S 30 60
13.12.2018 15:00:00 -14,0 -21,5 9 5 S 30 6
13.12.2018 14:00:00 -14,6 -15,9 5 3 S 30 0
13.12.2018 13:00:00 -15,2 -15,2 18 10 S 0,2 12
13.12.2018 12:00:00 -15,8 -15,8 15 8 S 10 60
13.12.2018 11:00:00 -15,0 -19,2 15 8 S 50 60
13.12.2018 10:00:00 -16,2 -22,2 15 8 S 50 0
13.12.2018 09:00:00 -16,6 -30,0 11 6 S 50 0
13.12.2018 08:00:00 -15,8 -30,0 11 6 ONO 30 -
13.12.2018 07:00:00 -15,6 -30,0 11 6 S 10 -
13.12.2018 06:00:00 -15,2 -30,0 15 8 O 10 -
13.12.2018 05:00:00 -15,2 -30,0 9 5 NO 10 -
13.12.2018 04:00:00 -14,8 -30,0 9 5 NO 10 -
13.12.2018 03:00:00 -15,0 -30,0 9 5 NNO 10 -
13.12.2018 02:00:00 -14,8 -30,0 9 5 NNO 10 -
13.12.2018 01:00:00 -14,8 -30,0 9 5 NNO 10 -
13.12.2018 00:00:00 -14,8 -30,0 9 5 NNO 10 -
12.12.2018 23:00:00 -14,2 -30,0 9 5 ONO 10 -
12.12.2018 22:00:00 -14,0 -30,0 9 5 ONO 10 -
12.12.2018 21:00:00 -13,8 -30,0 0 0 N 10 -
12.12.2018 20:00:00 -13,6 -30,0 11 6 NE 10 -
12.12.2018 19:00:00 -13,8 -30,0 8 4 N 10 -
12.12.2018 18:00:00 -14,0 -30,0 16 9 NNE 10 -
12.12.2018 17:00:00 -13,8 -30,0 11 6 NE 30 12
12.12.2018 16:00:00 -13,2 -30,0 11 6 NE 50 60
12.12.2018 15:00:00 -12,8 -30,0 13 7 NNE 50 60
12.12.2018 14:00:00 -12,2 -30,0 8 4 NE 50 60
12.12.2018 13:00:00 -12,6 -30,0 28 15 NNE 80 60
12.12.2018 12:00:00 -12,8 -30,0 46 25 NNE 80 60
12.12.2018 11:00:00 -12,8 -30,0 46 25 NNE 80 60
12.12.2018 10:00:00 -11,8 -30,0 65 35 NE 80 0
12.12.2018 09:00:00 -12,4 -30,0 65 35 NE 80 -
12.12.2018 08:00:00 -12,8 -30,0 65 35 NE 20 -
12.12.2018 07:00:00 -13,0 -30,0 55 30 NE 10 -
12.12.2018 06:00:00 -12,0 -30,0 65 35 NE 10 -
12.12.2018 05:00:00 -11,6 -30,0 67 36 NE 10 -
12.12.2018 04:00:00 -12,6 -30,0 63 34 NE 10 -
12.12.2018 03:00:00 -13,0 -30,0 55 30 NNE 10 -
12.12.2018 02:00:00 -13,6 -30,0 59 32 NE 10 -
12.12.2018 01:00:00 -12,8 -30,0 63 34 NE 10 -
12.12.2018 00:00:00 -12,8 -30,0 55 30 NE 10 -
11.12.2018 23:00:00 -12,2 -30,0 55 30 NE 10 -
11.12.2018 22:00:00 -12,2 -30,0 55 30 NE 10 -
11.12.2018 21:00:00 -12,2 -30,0 52 28 NE 10 -
11.12.2018 20:00:00 -11,6 -30,0 55 30 NE 10 -
11.12.2018 19:00:00 -12,0 -30,0 55 30 NE 10 -
11.12.2018 18:00:00 -12,6 -30,0 65 35 NE 10 12
11.12.2018 17:00:00 -12,8 -30,0 65 35 NE 30 60
11.12.2018 16:00:00 -13,0 -29,8 55 30 NNE 80 60
11.12.2018 15:00:00 -13,4 -28,1 46 25 NNE 80 60
11.12.2018 14:00:00 -13,8 -25,7 65 35 NNE 80 60
11.12.2018 13:00:00 -13,8 -19,9 63 34 ENE 30 60
11.12.2018 12:00:00 -15,0 -18,0 65 35 NNE 30 60
11.12.2018 11:00:00 -15,8 -17,3 59 32 NNE 30 60
11.12.2018 10:00:00 -16,0 -17,0 67 36 NNE 30 0
11.12.2018 09:00:00 -16,4 -17,0 65 35 NNE 20 0
11.12.2018 08:00:00 -16,8 -17,3 67 36 NNE 20 0
11.12.2018 07:00:00 -17,2 -17,7 65 35 NNE 0,8 -
11.12.2018 06:00:00 -16,8 -17,3 65 35 NNE 0,8 -
11.12.2018 05:00:00 -16,4 -16,9 34 18 N 0,8 -
11.12.2018 04:00:00 -16,2 -16,6 37 20 N 0,8 -
11.12.2018 03:00:00 -15,8 -16,2 37 20 N 0,1 -
11.12.2018 02:00:00 -15,8 -16,2 37 20 N 0,1 -
11.12.2018 01:00:00 -16,0 -16,2 46 25 N 0,1 -
11.12.2018 00:00:00 -16,0 -16,3 55 30 N 0,1 -
10.12.2018 23:00:00 -16,2 -16,4 74 40 N 0,1 -
10.12.2018 22:00:00 -16,0 -16,0 63 34 N 0,1 -
10.12.2018 21:00:00 -16,0 -16,3 67 36 N 0,1 -
10.12.2018 20:00:00 -16,0 -16,0 70 38 N 0,1 -
10.12.2018 19:00:00 -16,0 -16,0 59 32 N 0,1 -
10.12.2018 18:00:00 -16,0 -16,0 65 35 N 0,1 -
10.12.2018 17:00:00 -16,0 -16,0 59 32 N 0,1 0
10.12.2018 16:00:00 -16,0 -16,0 74 40 N 0,1 0
10.12.2018 15:00:00 -15,6 -15,6 59 32 N 0,1 0
10.12.2018 14:00:00 -15,4 -15,4 74 40 N 0,1 0
10.12.2018 13:00:00 -15,4 -15,4 74 40 N 0,1 0
10.12.2018 12:00:00 -15,2 -15,2 83 45 N 0,1 0
10.12.2018 11:00:00 -15,0 -15,0 65 35 N 0,1 0
10.12.2018 10:00:00 -15,6 -15,6 74 40 N 0,1 0
10.12.2018 09:00:00 -15,6 -15,6 83 45 N 0,1 0
10.12.2018 08:00:00 -15,4 -15,4 83 45 N 0,1 -
10.12.2018 07:00:00 -15,4 -15,4 74 40 N 0,1 -
10.12.2018 06:00:00 -15,2 -15,2 74 40 N 0,1 -
10.12.2018 05:00:00 -15,0 -15,0 55 30 N 0,1 -
10.12.2018 04:00:00 -14,6 -14,6 55 30 N 0,1 -
10.12.2018 03:00:00 -14,2 -14,2 65 35 N 0,1 -
10.12.2018 02:00:00 -14,0 -14,0 55 30 N 0,1 -
10.12.2018 01:00:00 -13,6 -13,6 65 35 N 0,1 -
10.12.2018 00:00:00 -13,4 -13,4 65 35 N 0,1 -
09.12.2018 23:00:00 -13,2 -13,2 55 30 N 0,1 -
09.12.2018 22:00:00 -13,2 -13,2 55 30 N 0,1 -
09.12.2018 21:00:00 -13,2 -13,2 65 35 N 0,1 -
09.12.2018 20:00:00 -12,8 -12,8 65 35 N 0,1 -
09.12.2018 19:00:00 -13,2 -13,2 65 35 N 0,1 -
09.12.2018 18:00:00 -13,4 -13,4 55 30 N 0,1 -
09.12.2018 17:00:00 -13,4 -13,4 28 15 NNE 0,1 0
09.12.2018 16:00:00 -13,4 -13,4 28 15 NNE 0,1 0
09.12.2018 15:00:00 -13,8 -13,8 37 20 NNO 0,1 -
09.12.2018 14:00:00 -13,8 -13,8 28 15 ESE 0,1 0
09.12.2018 13:00:00 -14,0 -14,0 55 30 NNO 0,1 0
09.12.2018 12:00:00 -12,2 -12,2 55 30 NNO 0,1 0
09.12.2018 11:00:00 -11,8 -11,8 55 30 NNO 0,1 0
09.12.2018 10:00:00 -12,2 -12,2 65 35 NNO 0,1 0
09.12.2018 09:00:00 -11,6 -11,6 65 35 ONO 0,1 -
09.12.2018 08:00:00 -11,6 -11,6 55 30 NNO 0,1 -
09.12.2018 07:00:00 -11,0 -11,0 46 25 NNO 0,1 -
09.12.2018 06:00:00 -10,4 -11,4 74 40 SE 0,1 -
09.12.2018 05:00:00 -10,0 -11,3 74 40 SE 0,1 -
09.12.2018 04:00:00 -10,4 -12,0 83 45 SE 0,1 -
09.12.2018 03:00:00 -10,0 -12,5 83 45 SSE 0,1 -
09.12.2018 02:00:00 -9,8 -15,7 65 35 SSE 0,1 -
09.12.2018 01:00:00 -9,8 -9,8 74 40 SE 0,1 -
09.12.2018 00:00:00 -9,8 -10,3 65 35 E 0,1 -
08.12.2018 23:00:00 -9,6 -9,6 74 40 SE 0,1 -
08.12.2018 22:00:00 -9,6 -9,6 46 25 ESE 0,1 -
08.12.2018 21:00:00 -10,6 -10,6 55 30 SE 0,1 -
08.12.2018 20:00:00 -11,0 -11,0 46 25 N 0,1 -
08.12.2018 19:00:00 -11,8 -12,1 18 10 N 0,1 -
08.12.2018 18:00:00 -12,8 -13,3 46 25 N 0,1 0
08.12.2018 17:00:00 -12,6 -13,5 37 20 N 0,1 0
08.12.2018 16:00:00 -13,8 -15,1 28 15 N 0,1 0
08.12.2018 15:00:00 -14,0 -17,0 37 20 N 0,5 0
08.12.2018 14:00:00 -14,0 -19,1 46 25 N 0,8 0
08.12.2018 13:00:00 -14,2 -16,6 37 20 NE 0,5 0
08.12.2018 12:00:00 -14,4 -17,4 28 15 E 0,5 0
08.12.2018 11:00:00 -14,6 -17,9 55 30 ENE 0,5 0
08.12.2018 10:00:00 -15,6 -16,6 55 30 NE 0,5 0
08.12.2018 09:00:00 -15,6 -17,4 46 25 NNE 0,5 0
08.12.2018 08:00:00 -14,8 -17,8 65 35 NE 0,5 -
08.12.2018 07:00:00 -15,4 -17,1 111 60 SSE 0,1 -
08.12.2018 06:00:00 -16,0 -16,9 55 30 N 0,1 -
08.12.2018 05:00:00 -16,0 -17,3 55 30 N 0,1 -
08.12.2018 04:00:00 -16,2 -16,8 55 30 N 0,1 -
08.12.2018 03:00:00 -15,6 -16,6 46 25 ONO 0,1 -
08.12.2018 02:00:00 -14,4 -14,4 28 15 NNO 0,1 -
08.12.2018 01:00:00 -12,2 -12,2 28 15 O 0,1 -
08.12.2018 00:00:00 -10,4 -10,4 18 10 SSO 0,1 -
07.12.2018 23:00:00 -9,2 -9,5 18 10 SSO 0,1 -
07.12.2018 22:00:00 -8,6 -9,9 18 10 SSO 0,5 -

tt = Temperatura
td = dewpoint
ff = velocità del vento
dd = direzione del vento
vv = visibility
sd = ore di luce

Stazioni seguenti

WeatherPro
AMSI
MeteoEarth